Year,Month,Day,Hour,Minute,Value (Times are PST for temperature in C)
2018,12,05,00,00,-2.30
2018,12,05,00,01,-2.30
2018,12,05,00,02,-2.30
2018,12,05,00,03,-2.30
2018,12,05,00,04,-2.30
2018,12,05,00,05,-2.30
2018,12,05,00,06,-2.30
2018,12,05,00,07,-2.30
2018,12,05,00,08,-2.30
2018,12,05,00,09,-2.30
2018,12,05,00,10,-2.30
2018,12,05,00,11,-2.30
2018,12,05,00,12,-2.30
2018,12,05,00,13,-2.30
2018,12,05,00,14,-2.30
2018,12,05,00,15,-2.40
2018,12,05,00,16,-2.40
2018,12,05,00,17,-2.40
2018,12,05,00,18,-2.40
2018,12,05,00,19,-2.40
2018,12,05,00,20,-2.40
2018,12,05,00,21,-2.40
2018,12,05,00,22,-2.40
2018,12,05,00,23,-2.40
2018,12,05,00,24,-2.40
2018,12,05,00,25,-2.40
2018,12,05,00,26,-2.40
2018,12,05,00,27,-2.40
2018,12,05,00,28,-2.40
2018,12,05,00,29,-2.40
2018,12,05,00,30,-2.40
2018,12,05,00,31,-2.40
2018,12,05,00,32,-2.40
2018,12,05,00,33,-2.40
2018,12,05,00,34,-2.40
2018,12,05,00,35,-2.50
2018,12,05,00,36,-2.50
2018,12,05,00,37,-2.60
2018,12,05,00,38,-2.60
2018,12,05,00,39,-2.60
2018,12,05,00,40,-2.60
2018,12,05,00,41,-2.60
2018,12,05,00,42,-2.60
2018,12,05,00,43,-2.60
2018,12,05,00,44,-2.60
2018,12,05,00,45,-2.60
2018,12,05,00,46,-2.70
2018,12,05,00,47,-2.70
2018,12,05,00,48,-2.70
2018,12,05,00,49,-2.70
2018,12,05,00,50,-2.70
2018,12,05,00,51,-2.70
2018,12,05,00,52,-2.70
2018,12,05,00,53,-2.70
2018,12,05,00,54,-2.70
2018,12,05,00,55,-2.70
2018,12,05,00,56,-2.70
2018,12,05,00,57,-2.70
2018,12,05,00,58,-2.60
2018,12,05,00,59,-2.60
2018,12,05,01,00,-2.60
2018,12,05,01,01,-2.60
2018,12,05,01,02,-2.60
2018,12,05,01,03,-2.60
2018,12,05,01,04,-2.70
2018,12,05,01,05,-2.70
2018,12,05,01,06,-2.70
2018,12,05,01,07,-2.70
2018,12,05,01,08,-2.80
2018,12,05,01,09,-2.80
2018,12,05,01,10,-2.80
2018,12,05,01,11,-2.80
2018,12,05,01,12,-2.80
2018,12,05,01,13,-2.80
2018,12,05,01,14,-2.80
2018,12,05,01,15,-2.80
2018,12,05,01,16,-2.70
2018,12,05,01,17,-2.70
2018,12,05,01,18,-2.70
2018,12,05,01,19,-2.60
2018,12,05,01,20,-2.60
2018,12,05,01,21,-2.50
2018,12,05,01,22,-2.50
2018,12,05,01,23,-2.40
2018,12,05,01,24,-2.40
2018,12,05,01,25,-2.40
2018,12,05,01,26,-2.40
2018,12,05,01,27,-2.40
2018,12,05,01,28,-2.30
2018,12,05,01,29,-2.30
2018,12,05,01,30,-2.30
2018,12,05,01,31,-2.30
2018,12,05,01,32,-2.30
2018,12,05,01,33,-2.30
2018,12,05,01,34,-2.30
2018,12,05,01,35,-2.30
2018,12,05,01,36,-2.40
2018,12,05,01,37,-2.40
2018,12,05,01,38,-2.40
2018,12,05,01,39,-2.40
2018,12,05,01,40,-2.40
2018,12,05,01,41,-2.50
2018,12,05,01,42,-2.50
2018,12,05,01,43,-2.60
2018,12,05,01,44,-2.60
2018,12,05,01,45,-2.60
2018,12,05,01,46,-2.60
2018,12,05,01,47,-2.60
2018,12,05,01,48,-2.60
2018,12,05,01,49,-2.60
2018,12,05,01,50,-2.60
2018,12,05,01,51,-2.60
2018,12,05,01,52,-2.60
2018,12,05,01,53,-2.60
2018,12,05,01,54,-2.60
2018,12,05,01,55,-2.60
2018,12,05,01,56,-2.70
2018,12,05,01,57,-2.70
2018,12,05,01,58,-2.70
2018,12,05,01,59,-2.70
2018,12,05,02,00,-2.70
2018,12,05,02,01,-2.70
2018,12,05,02,02,-2.70
2018,12,05,02,03,-2.70
2018,12,05,02,04,-2.70
2018,12,05,02,05,-2.70
2018,12,05,02,06,-2.70
2018,12,05,02,07,-2.60
2018,12,05,02,08,-2.60
2018,12,05,02,09,-2.50
2018,12,05,02,10,-2.50
2018,12,05,02,11,-2.50
2018,12,05,02,12,-2.40
2018,12,05,02,13,-2.40
2018,12,05,02,14,-2.40
2018,12,05,02,15,-2.40
2018,12,05,02,16,-2.40
2018,12,05,02,17,-2.40
2018,12,05,02,18,-2.40
2018,12,05,02,19,-2.50
2018,12,05,02,20,-2.50
2018,12,05,02,21,-2.50
2018,12,05,02,22,-2.60
2018,12,05,02,23,-2.60
2018,12,05,02,24,-2.60
2018,12,05,02,25,-2.60
2018,12,05,02,26,-2.70
2018,12,05,02,27,-2.70
2018,12,05,02,28,-2.70
2018,12,05,02,29,-2.80
2018,12,05,02,30,-2.80
2018,12,05,02,31,-2.90
2018,12,05,02,32,-2.90
2018,12,05,02,33,-2.90
2018,12,05,02,34,-2.90
2018,12,05,02,35,-2.90
2018,12,05,02,36,-3.00
2018,12,05,02,37,-3.00
2018,12,05,02,38,-3.00
2018,12,05,02,39,-3.00
2018,12,05,02,40,-3.00
2018,12,05,02,41,-3.00
2018,12,05,02,42,-3.00
2018,12,05,02,43,-3.00
2018,12,05,02,44,-3.10
2018,12,05,02,45,-3.10
2018,12,05,02,46,-3.10
2018,12,05,02,47,-3.10
2018,12,05,02,48,-3.10
2018,12,05,02,49,-3.10
2018,12,05,02,50,-3.10
2018,12,05,02,51,-3.10
2018,12,05,02,52,-3.20
2018,12,05,02,53,-3.20
2018,12,05,02,54,-3.10
2018,12,05,02,55,-3.10
2018,12,05,02,56,-3.10
2018,12,05,02,57,-3.10
2018,12,05,02,58,-3.10
2018,12,05,02,59,-3.10
2018,12,05,03,00,-3.10
2018,12,05,03,01,-3.10
2018,12,05,03,02,-3.10
2018,12,05,03,03,-3.10
2018,12,05,03,04,-3.10
2018,12,05,03,05,-3.10
2018,12,05,03,06,-3.10
2018,12,05,03,07,-3.20
2018,12,05,03,08,-3.20
2018,12,05,03,09,-3.20
2018,12,05,03,10,-3.20
2018,12,05,03,11,-3.20
2018,12,05,03,12,-3.30
2018,12,05,03,13,-3.30
2018,12,05,03,14,-3.30
2018,12,05,03,15,-3.30
2018,12,05,03,16,-3.30
2018,12,05,03,17,-3.30
2018,12,05,03,18,-3.30
2018,12,05,03,19,-3.30
2018,12,05,03,20,-3.30
2018,12,05,03,21,-3.20
2018,12,05,03,22,-3.20
2018,12,05,03,23,-3.20
2018,12,05,03,24,-3.20
2018,12,05,03,25,-3.20
2018,12,05,03,26,-3.20
2018,12,05,03,27,-3.20
2018,12,05,03,28,-3.20
2018,12,05,03,29,-3.20
2018,12,05,03,30,-3.20
2018,12,05,03,31,-3.10
2018,12,05,03,32,-3.00
2018,12,05,03,33,-3.00
2018,12,05,03,34,-3.00
2018,12,05,03,35,-2.90
2018,12,05,03,36,-3.00
2018,12,05,03,37,-2.90
2018,12,05,03,38,-2.90
2018,12,05,03,39,-2.90
2018,12,05,03,40,-2.90
2018,12,05,03,41,-2.90
2018,12,05,03,42,-2.90
2018,12,05,03,43,-2.90
2018,12,05,03,44,-2.80
2018,12,05,03,45,-2.80
2018,12,05,03,46,-2.80
2018,12,05,03,47,-2.80
2018,12,05,03,48,-2.70
2018,12,05,03,49,-2.70
2018,12,05,03,50,-2.70
2018,12,05,03,51,-2.70
2018,12,05,03,52,-2.60
2018,12,05,03,53,-2.60
2018,12,05,03,54,-2.60
2018,12,05,03,55,-2.60
2018,12,05,03,56,-2.60
2018,12,05,03,57,-2.60
2018,12,05,03,58,-2.60
2018,12,05,03,59,-2.60
2018,12,05,04,00,-2.60
2018,12,05,04,01,-2.60
2018,12,05,04,02,-2.50
2018,12,05,04,03,-2.50
2018,12,05,04,04,-2.40
2018,12,05,04,05,-2.40
2018,12,05,04,06,-2.40
2018,12,05,04,07,-2.30
2018,12,05,04,08,-2.30
2018,12,05,04,09,-2.30
2018,12,05,04,10,-2.30
2018,12,05,04,11,-2.30
2018,12,05,04,12,-2.30
2018,12,05,04,13,-2.30
2018,12,05,04,14,-2.40
2018,12,05,04,15,-2.50
2018,12,05,04,16,-2.50
2018,12,05,04,17,-2.60
2018,12,05,04,18,-2.60
2018,12,05,04,19,-2.60
2018,12,05,04,20,-2.70
2018,12,05,04,21,-2.70
2018,12,05,04,22,-2.70
2018,12,05,04,23,-2.80
2018,12,05,04,24,-2.80
2018,12,05,04,25,-2.80
2018,12,05,04,26,-2.90
2018,12,05,04,27,-2.90
2018,12,05,04,28,-3.00
2018,12,05,04,29,-3.00
2018,12,05,04,30,-3.10
2018,12,05,04,31,-3.10
2018,12,05,04,32,-3.10
2018,12,05,04,33,-3.10
2018,12,05,04,34,-3.10
2018,12,05,04,35,-3.10
2018,12,05,04,36,-3.10
2018,12,05,04,37,-3.20
2018,12,05,04,38,-3.20
2018,12,05,04,39,-3.20
2018,12,05,04,40,-3.20
2018,12,05,04,41,-3.20
2018,12,05,04,42,-3.30
2018,12,05,04,43,-3.30
2018,12,05,04,44,-3.40
2018,12,05,04,45,-3.40
2018,12,05,04,46,-3.40
2018,12,05,04,47,-3.40
2018,12,05,04,48,-3.50
2018,12,05,04,49,-3.50
2018,12,05,04,50,-3.50
2018,12,05,04,51,-3.50
2018,12,05,04,52,-3.50
2018,12,05,04,53,-3.50
2018,12,05,04,54,-3.50
2018,12,05,04,55,-3.50
2018,12,05,04,56,-3.60
2018,12,05,04,57,-3.60
2018,12,05,04,58,-3.60
2018,12,05,04,59,-3.50
2018,12,05,05,00,-3.50
2018,12,05,05,01,-3.50
2018,12,05,05,02,-3.50
2018,12,05,05,03,-3.50
2018,12,05,05,04,-3.50
2018,12,05,05,05,-3.50
2018,12,05,05,06,-3.50
2018,12,05,05,07,-3.50
2018,12,05,05,08,-3.50
2018,12,05,05,09,-3.60
2018,12,05,05,10,-3.60
2018,12,05,05,11,-3.60
2018,12,05,05,12,-3.60
2018,12,05,05,13,-3.60
2018,12,05,05,14,-3.60
2018,12,05,05,15,-3.60
2018,12,05,05,16,-3.60
2018,12,05,05,17,-3.60
2018,12,05,05,18,-3.60
2018,12,05,05,19,-3.60
2018,12,05,05,20,-3.60
2018,12,05,05,21,-3.60
2018,12,05,05,22,-3.70
2018,12,05,05,23,-3.70
2018,12,05,05,24,-3.70
2018,12,05,05,25,-3.70
2018,12,05,05,26,-3.70
2018,12,05,05,27,-3.70
2018,12,05,05,28,-3.60
2018,12,05,05,29,-3.70
2018,12,05,05,30,-3.70
2018,12,05,05,31,-3.70
2018,12,05,05,32,-3.70
2018,12,05,05,33,-3.70
2018,12,05,05,34,-3.70
2018,12,05,05,35,-3.70
2018,12,05,05,36,-3.70
2018,12,05,05,37,-3.70
2018,12,05,05,38,-3.70
2018,12,05,05,39,-3.70
2018,12,05,05,40,-3.80
2018,12,05,05,41,-3.80
2018,12,05,05,42,-3.80
2018,12,05,05,43,-3.80
2018,12,05,05,44,-3.80
2018,12,05,05,45,-3.80
2018,12,05,05,46,-3.80
2018,12,05,05,47,-3.80
2018,12,05,05,48,-3.80
2018,12,05,05,49,-3.80
2018,12,05,05,50,-3.80
2018,12,05,05,51,-3.80
2018,12,05,05,52,-3.80
2018,12,05,05,53,-3.80
2018,12,05,05,54,-3.90
2018,12,05,05,55,-3.90
2018,12,05,05,56,-3.90
2018,12,05,05,57,-3.90
2018,12,05,05,58,-3.90
2018,12,05,05,59,-4.00
2018,12,05,06,00,-4.00
2018,12,05,06,01,-4.00
2018,12,05,06,02,-4.00
2018,12,05,06,03,-4.10
2018,12,05,06,04,-4.10
2018,12,05,06,05,-4.10
2018,12,05,06,06,-4.10
2018,12,05,06,07,-4.10
2018,12,05,06,08,-4.10
2018,12,05,06,09,-4.10
2018,12,05,06,10,-4.00
2018,12,05,06,11,-4.00
2018,12,05,06,12,-4.00
2018,12,05,06,13,-4.00
2018,12,05,06,14,-3.90
2018,12,05,06,15,-3.90
2018,12,05,06,16,-3.90
2018,12,05,06,17,-4.00
2018,12,05,06,18,-4.00
2018,12,05,06,19,-4.00
2018,12,05,06,20,-4.00
2018,12,05,06,21,-4.10
2018,12,05,06,22,-4.10
2018,12,05,06,23,-4.10
2018,12,05,06,24,-4.10
2018,12,05,06,25,-4.10
2018,12,05,06,26,-4.10
2018,12,05,06,27,-4.10
2018,12,05,06,28,-4.10
2018,12,05,06,29,-4.10
2018,12,05,06,30,-4.10
2018,12,05,06,31,-4.20
2018,12,05,06,32,-4.20
2018,12,05,06,33,-4.20
2018,12,05,06,34,-4.20
2018,12,05,06,35,-4.20
2018,12,05,06,36,-4.30
2018,12,05,06,37,-4.30
2018,12,05,06,38,-4.30
2018,12,05,06,39,-4.20
2018,12,05,06,40,-4.20
2018,12,05,06,41,-4.20
2018,12,05,06,42,-4.20
2018,12,05,06,43,-4.20
2018,12,05,06,44,-4.20
2018,12,05,06,45,-4.30
2018,12,05,06,46,-4.30
2018,12,05,06,47,-4.30
2018,12,05,06,48,-4.30
2018,12,05,06,49,-4.30
2018,12,05,06,50,-4.30
2018,12,05,06,51,-4.30
2018,12,05,06,52,-4.30
2018,12,05,06,53,-4.30
2018,12,05,06,54,-4.30
2018,12,05,06,55,-4.40
2018,12,05,06,56,-4.40
2018,12,05,06,57,-4.40
2018,12,05,06,58,-4.40
2018,12,05,06,59,-4.40
2018,12,05,07,00,-4.40
2018,12,05,07,01,-4.40
2018,12,05,07,02,-4.40
2018,12,05,07,03,-4.50
2018,12,05,07,04,-4.50
2018,12,05,07,05,-4.50
2018,12,05,07,06,-4.50
2018,12,05,07,07,-4.50
2018,12,05,07,08,-4.50
2018,12,05,07,09,-4.50
2018,12,05,07,10,-4.50
2018,12,05,07,11,-4.50
2018,12,05,07,12,-4.50
2018,12,05,07,13,-4.50
2018,12,05,07,14,-4.50
2018,12,05,07,15,-4.50
2018,12,05,07,16,-4.50
2018,12,05,07,17,-4.50
2018,12,05,07,18,-4.50
2018,12,05,07,19,-4.50
2018,12,05,07,20,-4.50
2018,12,05,07,21,-4.50
2018,12,05,07,22,-4.50
2018,12,05,07,23,-4.60
2018,12,05,07,24,-4.60
2018,12,05,07,25,-4.60
2018,12,05,07,26,-4.60
2018,12,05,07,27,-4.60
2018,12,05,07,28,-4.60
2018,12,05,07,29,-4.60
2018,12,05,07,30,-4.60
2018,12,05,07,31,-4.60
2018,12,05,07,32,-4.60
2018,12,05,07,33,-4.60
2018,12,05,07,34,-4.60
2018,12,05,07,35,-4.60
2018,12,05,07,36,-4.60
2018,12,05,07,37,-4.60
2018,12,05,07,38,-4.60
2018,12,05,07,39,-4.60
2018,12,05,07,40,-4.70
2018,12,05,07,41,-4.70
2018,12,05,07,42,-4.70
2018,12,05,07,43,-4.70
2018,12,05,07,44,-4.70
2018,12,05,07,45,-4.70
2018,12,05,07,46,-4.70
2018,12,05,07,47,-4.70
2018,12,05,07,48,-4.70
2018,12,05,07,49,-4.70
2018,12,05,07,50,-4.70
2018,12,05,07,51,-4.70
2018,12,05,07,52,-4.70
2018,12,05,07,53,-4.70
2018,12,05,07,54,-4.70
2018,12,05,07,55,-4.70
2018,12,05,07,56,-4.70
2018,12,05,07,57,-4.70
2018,12,05,07,58,-4.70
2018,12,05,07,59,-4.60
2018,12,05,08,00,-4.60
2018,12,05,08,01,-4.60
2018,12,05,08,02,-4.60
2018,12,05,08,03,-4.60
2018,12,05,08,04,-4.60
2018,12,05,08,05,-4.60
2018,12,05,08,06,-4.60
2018,12,05,08,07,-4.70
2018,12,05,08,08,-4.70
2018,12,05,08,09,-4.70
2018,12,05,08,10,-4.70
2018,12,05,08,11,-4.70
2018,12,05,08,12,-4.80
2018,12,05,08,13,-4.80
2018,12,05,08,14,-4.80
2018,12,05,08,15,-4.80
2018,12,05,08,16,-4.80
2018,12,05,08,17,-4.80
2018,12,05,08,18,-4.80
2018,12,05,08,19,-4.70
2018,12,05,08,20,-4.70
2018,12,05,08,21,-4.70
2018,12,05,08,22,-4.70
2018,12,05,08,23,-4.70
2018,12,05,08,24,-4.70
2018,12,05,08,25,-4.70
2018,12,05,08,26,-4.80
2018,12,05,08,27,-4.80
2018,12,05,08,28,-4.80
2018,12,05,08,29,-4.80
2018,12,05,08,30,-4.70
2018,12,05,08,31,-4.70
2018,12,05,08,32,-4.70
2018,12,05,08,33,-4.70
2018,12,05,08,34,-4.70
2018,12,05,08,35,-4.70
2018,12,05,08,36,-4.70
2018,12,05,08,37,-4.70
2018,12,05,08,38,-4.70
2018,12,05,08,39,-4.70
2018,12,05,08,40,-4.70
2018,12,05,08,41,-4.70
2018,12,05,08,42,-4.70
2018,12,05,08,43,-4.70
2018,12,05,08,44,-4.70
2018,12,05,08,45,-4.70
2018,12,05,08,46,-4.70
2018,12,05,08,47,-4.70
2018,12,05,08,48,-4.70
2018,12,05,08,49,-4.70
2018,12,05,08,50,-4.70
2018,12,05,08,51,-4.70
2018,12,05,08,52,-4.70
2018,12,05,08,53,-4.70
2018,12,05,08,54,-4.60
2018,12,05,08,55,-4.60
2018,12,05,08,56,-4.60
2018,12,05,08,57,-4.50
2018,12,05,08,58,-4.50
2018,12,05,08,59,-4.50
2018,12,05,09,00,-4.40
2018,12,05,09,01,-4.40
2018,12,05,09,02,-4.40
2018,12,05,09,03,-4.40
2018,12,05,09,04,-4.40
2018,12,05,09,05,-4.40
2018,12,05,09,06,-4.40
2018,12,05,09,07,-4.40
2018,12,05,09,08,-4.40
2018,12,05,09,09,-4.40
2018,12,05,09,10,-4.30
2018,12,05,09,11,-4.30
2018,12,05,09,12,-4.30
2018,12,05,09,13,-4.30
2018,12,05,09,14,-4.20
2018,12,05,09,15,-4.20
2018,12,05,09,16,-4.20
2018,12,05,09,17,-4.10
2018,12,05,09,18,-4.10
2018,12,05,09,19,-4.10
2018,12,05,09,20,-4.10
2018,12,05,09,21,-4.00
2018,12,05,09,22,-4.00
2018,12,05,09,23,-4.00
2018,12,05,09,24,-3.90
2018,12,05,09,25,-3.90
2018,12,05,09,26,-3.90
2018,12,05,09,27,-3.90
2018,12,05,09,28,-3.80
2018,12,05,09,29,-3.80
2018,12,05,09,30,-3.80
2018,12,05,09,31,-3.70
2018,12,05,09,32,-3.70
2018,12,05,09,33,-3.60
2018,12,05,09,34,-3.60
2018,12,05,09,35,-3.50
2018,12,05,09,36,-3.50
2018,12,05,09,37,-3.40
2018,12,05,09,38,-3.40
2018,12,05,09,39,-3.30
2018,12,05,09,40,-3.20
2018,12,05,09,41,-3.20
2018,12,05,09,42,-3.10
2018,12,05,09,43,-3.10
2018,12,05,09,44,-3.10
2018,12,05,09,45,-3.00
2018,12,05,09,46,-2.90
2018,12,05,09,47,-2.90
2018,12,05,09,48,-2.90
2018,12,05,09,49,-2.80
2018,12,05,09,50,-2.80
2018,12,05,09,51,-2.70
2018,12,05,09,52,-2.70
2018,12,05,09,53,-2.60
2018,12,05,09,54,-2.60
2018,12,05,09,55,-2.50
2018,12,05,09,56,-2.40
2018,12,05,09,57,-2.40
2018,12,05,09,58,-2.30
2018,12,05,09,59,-2.20
2018,12,05,10,00,-2.10
2018,12,05,10,01,-2.00
2018,12,05,10,02,-1.90
2018,12,05,10,03,-1.80
2018,12,05,10,04,-1.70
2018,12,05,10,05,-1.60
2018,12,05,10,06,-1.40
2018,12,05,10,07,-1.30
2018,12,05,10,08,-1.10
2018,12,05,10,09,-1.00
2018,12,05,10,10,-0.90
2018,12,05,10,11,-0.70
2018,12,05,10,12,-0.60
2018,12,05,10,13,-0.50
2018,12,05,10,14,-0.50
2018,12,05,10,15,-0.40
2018,12,05,10,16,-0.40
2018,12,05,10,17,-0.40
2018,12,05,10,18,-0.30
2018,12,05,10,19,-0.30
2018,12,05,10,20,-0.30
2018,12,05,10,21,-0.30
2018,12,05,10,22,-0.20
2018,12,05,10,23,-0.20
2018,12,05,10,24,-0.20
2018,12,05,10,25,-0.10
2018,12,05,10,26,-0.10
2018,12,05,10,27,-0.10
2018,12,05,10,28,0.00
2018,12,05,10,29,0.00
2018,12,05,10,30,0.10
2018,12,05,10,31,0.20
2018,12,05,10,32,0.20
2018,12,05,10,33,0.20
2018,12,05,10,34,0.30
2018,12,05,10,35,0.40
2018,12,05,10,36,0.40
2018,12,05,10,37,0.40
2018,12,05,10,38,0.50
2018,12,05,10,39,0.50
2018,12,05,10,40,0.50
2018,12,05,10,41,0.60
2018,12,05,10,42,0.60
2018,12,05,10,43,0.60
2018,12,05,10,44,0.70
2018,12,05,10,45,0.80
2018,12,05,10,46,0.90
2018,12,05,10,47,1.00
2018,12,05,10,48,1.10
2018,12,05,10,49,1.20
2018,12,05,10,50,1.30
2018,12,05,10,51,1.40
2018,12,05,10,52,1.40
2018,12,05,10,53,1.40
2018,12,05,10,54,1.40
2018,12,05,10,55,1.50
2018,12,05,10,56,1.50
2018,12,05,10,57,1.50
2018,12,05,10,58,1.50
2018,12,05,10,59,1.50
2018,12,05,11,00,1.50
2018,12,05,11,01,1.50
2018,12,05,11,02,1.60
2018,12,05,11,03,1.60
2018,12,05,11,04,1.60
2018,12,05,11,05,1.60
2018,12,05,11,06,1.70
2018,12,05,11,07,1.70
2018,12,05,11,08,1.70
2018,12,05,11,09,1.70
2018,12,05,11,10,1.70
2018,12,05,11,11,1.70
2018,12,05,11,12,1.80
2018,12,05,11,13,1.80
2018,12,05,11,14,1.80
2018,12,05,11,15,1.80
2018,12,05,11,16,1.80
2018,12,05,11,17,1.80
2018,12,05,11,18,1.80
2018,12,05,11,19,1.80
2018,12,05,11,20,1.80
2018,12,05,11,21,1.90
2018,12,05,11,22,1.90
2018,12,05,11,23,2.00
2018,12,05,11,24,2.10
2018,12,05,11,25,2.20
2018,12,05,11,26,2.20
2018,12,05,11,27,2.30
2018,12,05,11,28,2.30
2018,12,05,11,29,2.30
2018,12,05,11,30,2.40
2018,12,05,11,31,2.40
2018,12,05,11,32,2.50
2018,12,05,11,33,2.50
2018,12,05,11,34,2.60
2018,12,05,11,35,2.70
2018,12,05,11,36,2.70
2018,12,05,11,37,2.70
2018,12,05,11,38,2.80
2018,12,05,11,39,2.80
2018,12,05,11,40,2.80
2018,12,05,11,41,2.90
2018,12,05,11,42,2.90
2018,12,05,11,43,2.90
2018,12,05,11,44,2.90
2018,12,05,11,45,3.00
2018,12,05,11,46,3.00
2018,12,05,11,47,3.00
2018,12,05,11,48,3.10
2018,12,05,11,49,3.10
2018,12,05,11,50,3.10
2018,12,05,11,51,3.20
2018,12,05,11,52,3.20
2018,12,05,11,53,3.20
2018,12,05,11,54,3.30
2018,12,05,11,55,3.30
2018,12,05,11,56,3.30
2018,12,05,11,57,3.30
2018,12,05,11,58,3.30
2018,12,05,11,59,3.30
2018,12,05,12,00,3.40
2018,12,05,12,01,3.40
2018,12,05,12,02,3.40
2018,12,05,12,03,3.40
2018,12,05,12,04,3.40
2018,12,05,12,05,3.40
2018,12,05,12,06,3.30
2018,12,05,12,07,3.30
2018,12,05,12,08,3.30
2018,12,05,12,09,3.20
2018,12,05,12,10,3.20
2018,12,05,12,11,3.10
2018,12,05,12,12,3.10
2018,12,05,12,13,3.10
2018,12,05,12,14,3.10
2018,12,05,12,15,3.10
2018,12,05,12,16,3.10
2018,12,05,12,17,3.10
2018,12,05,12,18,3.10
2018,12,05,12,19,3.10
2018,12,05,12,20,3.20
2018,12,05,12,21,3.20
2018,12,05,12,22,3.30
2018,12,05,12,23,3.30
2018,12,05,12,24,3.30
2018,12,05,12,25,3.40
2018,12,05,12,26,3.40
2018,12,05,12,27,3.40
2018,12,05,12,28,3.40
2018,12,05,12,29,3.40
2018,12,05,12,30,3.40
2018,12,05,12,31,3.50
2018,12,05,12,32,3.50
2018,12,05,12,33,3.60
2018,12,05,12,34,3.60
2018,12,05,12,35,3.60
2018,12,05,12,36,3.60
2018,12,05,12,37,3.60
2018,12,05,12,38,3.60
2018,12,05,12,39,3.50
2018,12,05,12,40,3.50
2018,12,05,12,41,3.60
2018,12,05,12,42,3.60
2018,12,05,12,43,3.60
2018,12,05,12,44,3.60
2018,12,05,12,45,3.60
2018,12,05,12,46,3.60
2018,12,05,12,47,3.60
2018,12,05,12,48,3.60
2018,12,05,12,49,3.60
2018,12,05,12,50,3.60
2018,12,05,12,51,3.60
2018,12,05,12,52,3.60
2018,12,05,12,53,3.50
2018,12,05,12,54,3.50
2018,12,05,12,55,3.40
2018,12,05,12,56,3.40
2018,12,05,12,57,3.40
2018,12,05,12,58,3.40
2018,12,05,12,59,3.30
2018,12,05,13,00,3.30
2018,12,05,13,01,3.30
2018,12,05,13,02,3.30
2018,12,05,13,03,3.30
2018,12,05,13,04,3.30
2018,12,05,13,05,3.30
2018,12,05,13,06,3.30
2018,12,05,13,07,3.30
2018,12,05,13,08,3.30
2018,12,05,13,09,3.30
2018,12,05,13,10,3.40
2018,12,05,13,11,3.40
2018,12,05,13,12,3.40
2018,12,05,13,13,3.40
2018,12,05,13,14,3.40
2018,12,05,13,15,3.30
2018,12,05,13,16,3.30
2018,12,05,13,17,3.40
2018,12,05,13,18,3.40
2018,12,05,13,19,3.40
2018,12,05,13,20,3.40
2018,12,05,13,21,3.40
2018,12,05,13,22,3.40
2018,12,05,13,23,3.30
2018,12,05,13,24,3.30
2018,12,05,13,25,3.30
2018,12,05,13,26,3.30
2018,12,05,13,27,3.30
2018,12,05,13,28,3.30
2018,12,05,13,29,3.40
2018,12,05,13,30,3.40
2018,12,05,13,31,3.50
2018,12,05,13,32,3.50
2018,12,05,13,33,3.60
2018,12,05,13,34,3.60
2018,12,05,13,35,3.70
2018,12,05,13,36,3.70
2018,12,05,13,37,3.80
2018,12,05,13,38,3.80
2018,12,05,13,39,3.80
2018,12,05,13,40,3.80
2018,12,05,13,41,3.80
2018,12,05,13,42,3.80
2018,12,05,13,43,3.80
2018,12,05,13,44,3.80
2018,12,05,13,45,3.80
2018,12,05,13,46,3.80
2018,12,05,13,47,3.80
2018,12,05,13,48,3.80
2018,12,05,13,49,3.80
2018,12,05,13,50,3.80
2018,12,05,13,51,3.80
2018,12,05,13,52,3.80
2018,12,05,13,53,3.80
2018,12,05,13,54,3.80
2018,12,05,13,55,3.80
2018,12,05,13,56,3.80
2018,12,05,13,57,3.80
2018,12,05,13,58,3.80
2018,12,05,13,59,3.80
2018,12,05,14,00,3.80
2018,12,05,14,01,3.80
2018,12,05,14,02,3.80
2018,12,05,14,03,3.80
2018,12,05,14,04,3.80
2018,12,05,14,05,3.80
2018,12,05,14,06,3.80
2018,12,05,14,07,3.80
2018,12,05,14,08,3.80
2018,12,05,14,09,3.80
2018,12,05,14,10,3.80
2018,12,05,14,11,3.80
2018,12,05,14,12,3.80
2018,12,05,14,13,3.80
2018,12,05,14,14,3.80
2018,12,05,14,15,3.80
2018,12,05,14,16,3.80
2018,12,05,14,17,3.80
2018,12,05,14,18,3.80
2018,12,05,14,19,3.80
2018,12,05,14,20,3.80
2018,12,05,14,21,3.80
2018,12,05,14,22,3.80
2018,12,05,14,23,3.80
2018,12,05,14,24,3.80
2018,12,05,14,25,3.80
2018,12,05,14,26,3.80
2018,12,05,14,27,3.80
2018,12,05,14,28,3.80
2018,12,05,14,29,3.80
2018,12,05,14,30,3.80
2018,12,05,14,31,3.80
2018,12,05,14,32,3.80
2018,12,05,14,33,3.80
2018,12,05,14,34,3.80
2018,12,05,14,35,3.80
2018,12,05,14,36,3.80
2018,12,05,14,37,3.80
2018,12,05,14,38,3.80
2018,12,05,14,39,3.80
2018,12,05,14,40,3.80
2018,12,05,14,41,3.80
2018,12,05,14,42,3.80
2018,12,05,14,43,3.80
2018,12,05,14,44,3.80
2018,12,05,14,45,3.80
2018,12,05,14,46,3.80
2018,12,05,14,47,3.80
2018,12,05,14,48,3.80
2018,12,05,14,49,3.80
2018,12,05,14,50,3.80
2018,12,05,14,51,3.80
2018,12,05,14,52,3.80
2018,12,05,14,53,3.80
2018,12,05,14,54,3.80
2018,12,05,14,55,3.80
2018,12,05,14,56,3.80
2018,12,05,14,57,3.80
2018,12,05,14,58,3.80
2018,12,05,14,59,3.80
2018,12,05,15,00,3.80
2018,12,05,15,01,3.80
2018,12,05,15,02,3.80
2018,12,05,15,03,3.80
2018,12,05,15,04,3.80
2018,12,05,15,05,3.90
2018,12,05,15,06,3.90
2018,12,05,15,07,3.90
2018,12,05,15,08,3.90
2018,12,05,15,09,3.90
2018,12,05,15,10,3.80
2018,12,05,15,11,3.80
2018,12,05,15,12,3.80
2018,12,05,15,13,3.70
2018,12,05,15,14,3.70
2018,12,05,15,15,3.70
2018,12,05,15,16,3.60
2018,12,05,15,17,3.60
2018,12,05,15,18,3.60
2018,12,05,15,19,3.60
2018,12,05,15,20,3.60
2018,12,05,15,21,3.60
2018,12,05,15,22,3.50
2018,12,05,15,23,3.50
2018,12,05,15,24,3.50
2018,12,05,15,25,3.40
2018,12,05,15,26,3.40
2018,12,05,15,27,3.40
2018,12,05,15,28,3.30
2018,12,05,15,29,3.30
2018,12,05,15,30,3.20
2018,12,05,15,31,3.20
2018,12,05,15,32,3.10
2018,12,05,15,33,3.10
2018,12,05,15,34,3.00
2018,12,05,15,35,3.00
2018,12,05,15,36,2.90
2018,12,05,15,37,2.90
2018,12,05,15,38,2.90
2018,12,05,15,39,2.90
2018,12,05,15,40,2.90
2018,12,05,15,41,2.90
2018,12,05,15,42,2.80
2018,12,05,15,43,2.80
2018,12,05,15,44,2.80
2018,12,05,15,45,2.80
2018,12,05,15,46,2.80
2018,12,05,15,47,2.70
2018,12,05,15,48,2.70
2018,12,05,15,49,2.70
2018,12,05,15,50,2.70
2018,12,05,15,51,2.60
2018,12,05,15,52,2.50
2018,12,05,15,53,2.40
2018,12,05,15,54,2.40
2018,12,05,15,55,2.30
2018,12,05,15,56,2.30
2018,12,05,15,57,2.20
2018,12,05,15,58,2.20
2018,12,05,15,59,2.10
2018,12,05,16,00,2.00
2018,12,05,16,01,2.00
2018,12,05,16,02,1.90
2018,12,05,16,03,1.90
2018,12,05,16,04,1.80
2018,12,05,16,05,1.80
2018,12,05,16,06,1.80
2018,12,05,16,07,1.70
2018,12,05,16,08,1.70
2018,12,05,16,09,1.70
2018,12,05,16,10,1.60
2018,12,05,16,11,1.60
2018,12,05,16,12,1.50
2018,12,05,16,13,1.40
2018,12,05,16,14,1.30
2018,12,05,16,15,1.30
2018,12,05,16,16,1.20
2018,12,05,16,17,1.10
2018,12,05,16,18,1.10
2018,12,05,16,19,1.10
2018,12,05,16,20,1.10
2018,12,05,16,21,1.10
2018,12,05,16,22,1.00
2018,12,05,16,23,1.00
2018,12,05,16,24,1.00
2018,12,05,16,25,1.00
2018,12,05,16,26,0.90
2018,12,05,16,27,0.90
2018,12,05,16,28,0.80
2018,12,05,16,29,0.80
2018,12,05,16,30,0.80
2018,12,05,16,31,0.70
2018,12,05,16,32,0.70
2018,12,05,16,33,0.60
2018,12,05,16,34,0.60
2018,12,05,16,35,0.50
2018,12,05,16,36,0.50
2018,12,05,16,37,0.40
2018,12,05,16,38,0.40
2018,12,05,16,39,0.30
2018,12,05,16,40,0.30
2018,12,05,16,41,0.30
2018,12,05,16,42,0.20
2018,12,05,16,43,0.20
2018,12,05,16,44,0.10
2018,12,05,16,45,0.10
2018,12,05,16,46,0.00
2018,12,05,16,47,0.00
2018,12,05,16,48,0.00
2018,12,05,16,49,0.00
2018,12,05,16,50,-0.10
2018,12,05,16,51,-0.10
2018,12,05,16,52,-0.10
2018,12,05,16,53,-0.10
2018,12,05,16,54,-0.20
2018,12,05,16,55,-0.20
2018,12,05,16,56,-0.20
2018,12,05,16,57,-0.30
2018,12,05,16,58,-0.30
2018,12,05,16,59,-0.30
2018,12,05,17,00,-0.30
2018,12,05,17,01,-0.40
2018,12,05,17,02,-0.40
2018,12,05,17,03,-0.40
2018,12,05,17,04,-0.50
2018,12,05,17,05,-0.50
2018,12,05,17,06,-0.60
2018,12,05,17,07,-0.60
2018,12,05,17,08,-0.60
2018,12,05,17,09,-0.60
2018,12,05,17,10,-0.70
2018,12,05,17,11,-0.70
2018,12,05,17,12,-0.70
2018,12,05,17,13,-0.70
2018,12,05,17,14,-0.70
2018,12,05,17,15,-0.80
2018,12,05,17,16,-0.80
2018,12,05,17,17,-0.80
2018,12,05,17,18,-0.80
2018,12,05,17,19,-0.80
2018,12,05,17,20,-0.90
2018,12,05,17,21,-0.90
2018,12,05,17,22,-0.90
2018,12,05,17,23,-0.90
2018,12,05,17,24,-1.00
2018,12,05,17,25,-1.00
2018,12,05,17,26,-1.00
2018,12,05,17,27,-1.00
2018,12,05,17,28,-1.00
2018,12,05,17,29,-1.10
2018,12,05,17,30,-1.10
2018,12,05,17,31,-1.10
2018,12,05,17,32,-1.10
2018,12,05,17,33,-1.10
2018,12,05,17,34,-1.20
2018,12,05,17,35,-1.20
2018,12,05,17,36,-1.20